GW2016 Weather Reports


time (UTC)temp
C
wind
direction
speed
KPH
gust
KPH
rain 1hr
cm
rain 24hr
cm
rain mn
cm
humidity
%
barometer
mb
20260510091604 13 36 25.7 69.2 0.00 0.00 0.00 73 1014.6
20260510091104 14 39 19.3 53.1 0.00 0.00 0.00 72 1014.6
20260510090604 14 33 29.0 61.2 0.00 0.00 0.00 72 1014.8
20260510090104 14 25 20.9 74.0 0.00 0.00 0.00 71 1014.8
20260510085104 13 68 19.3 83.7 0.00 0.00 0.00 70 1014.8
20260510084604 13 32 19.3 59.5 0.00 0.00 0.00 72 1014.9
20260510084104 13 45 19.3 61.2 0.00 0.00 0.00 73 1014.9
20260510083104 13 34 17.7 66.0 0.00 0.00 0.00 72 1014.9
20260510082604 13 44 20.9 48.3 0.00 0.00 0.00 73 1015.0
20260510082104 13 59 12.9 51.5 0.00 0.00 0.00 74 1014.7
20260510081604 12 61 20.9 62.8 0.00 0.00 0.00 75 1014.8
20260510081105 12 55 22.5 56.3 0.00 0.00 0.00 77 1014.9
20260510080604 12 28 24.1 48.3 0.00 0.00 0.00 77 1014.8
20260510080104 12 37 20.9 69.2 0.00 0.00 0.00 77 1014.7
20260510075604 12 42 20.9 59.5 0.00 0.00 0.00 78 1014.7
20260510075104 12 28 25.7 70.8 0.00 0.00 0.00 79 1014.9
20260510074104 12 29 27.4 70.8 0.00 0.00 0.00 79 1014.8
20260510073604 12 28 25.7 64.4 0.00 0.00 0.00 81 1014.8
20260510073104 12 36 19.3 61.2 0.00 0.00 0.00 81 1014.8
20260510072604 12 41 17.7 41.8 0.00 0.00 0.00 81 1014.9
20260510072104 11 65 12.9 57.9 0.00 0.00 0.00 81 1014.7
20260510071104 11 34 20.9 51.5 0.00 0.00 0.00 82 1014.9
20260510070604 11 31 22.5 51.5 0.00 0.00 0.00 82 1014.7
20260510070104 11 50 16.1 49.9 0.00 0.00 0.00 83 1014.9
20260510065604 11 44 22.5 74.0 0.00 0.00 0.00 83 1014.9
20260510065104 11 54 19.3 70.8 0.00 0.00 0.00 83 1015.0
20260510064604 11 35 22.5 72.4 0.00 0.00 0.00 83 1014.9
20260510064104 11 49 22.5 57.9 0.00 0.00 0.00 83 1014.9
20260510063604 11 56 17.7 51.5 0.00 0.00 0.00 83 1014.9
20260510063104 11 32 19.3 66.0 0.00 0.00 0.00 83 1014.9
20260510062604 11 24 19.3 61.2 0.00 0.00 0.00 83 1015.0
20260510062104 12 47 19.3 51.5 0.00 0.00 0.00 84 1015.0
20260510061605 11 27 19.3 49.9 0.00 0.00 0.00 85 1015.0
20260510061104 11 47 14.5 66.0 0.00 0.00 0.00 85 1015.1
20260510060604 11 36 20.9 56.3 0.00 0.00 0.00 86 1015.0
20260510060104 11 52 19.3 59.5 0.00 0.00 0.00 86 1014.8
20260510055604 11 35 19.3 53.1 0.00 0.00 0.00 87 1014.9
20260510054603 11 43 20.9 57.9 0.00 0.00 0.00 88 1015.2
20260510054104 11 50 20.9 51.5 0.00 0.00 0.00 88 1015.1
20260510053604 11 29 19.3 66.0 0.00 0.00 0.00 89 1015.1
20260510053104 11 51 20.9 59.5 0.00 0.00 0.00 89 1015.2
20260510052604 10 46 19.3 61.2 0.00 0.00 0.00 89 1015.2
20260510050604 10 26 16.1 38.6 0.00 0.00 0.00 90 1015.2
20260510050104 10 39 19.3 51.5 0.00 0.00 0.00 91 1014.9
20260510045604 10 39 25.7 57.9 0.00 0.00 0.00 91 1015.0
20260510045104 10 25 29.0 66.0 0.00 0.00 0.00 91 1014.8
20260510044604 10 42 20.9 61.2 0.00 0.00 0.00 91 1014.6
20260510044104 10 39 25.7 53.1 0.00 0.00 0.00 90 1014.7
20260510043104 10 54 16.1 53.1 0.00 0.00 0.00 89 1014.8
20260510042604 11 51 20.9 51.5 0.00 0.00 0.00 89 1014.9
20260510041104 11 29 17.7 49.9 0.00 0.00 0.00 88 1014.9
20260510040604 11 44 17.7 49.9 0.00 0.00 0.00 88 1014.9
20260510040104 11 36 17.7 46.7 0.00 0.00 0.00 87 1014.8
20260510035604 11 20 19.3 41.8 0.00 0.00 0.00 87 1015.0
20260510035104 11 39 16.1 48.3 0.00 0.00 0.00 87 1014.7
20260510034604 11 53 16.1 48.3 0.00 0.00 0.00 86 1014.8
20260510033603 11 39 17.7 41.8 0.00 0.00 0.00 86 1015.0
20260510033104 11 30 14.5 37.0 0.00 0.00 0.00 86 1015.0
20260510032104 11 40 14.5 48.3 0.00 0.00 0.00 87 1014.8
20260510031603 11 46 11.3 46.7 0.00 0.00 0.00 87 1014.7
20260510025604 11 32 14.5 45.1 0.00 0.00 0.00 87 1014.8
20260510025104 11 29 14.5 53.1 0.00 0.00 0.00 87 1014.8
20260510024604 11 33 17.7 49.9 0.00 0.00 0.00 87 1015.0
20260510024104 11 33 14.5 51.5 0.00 0.00 0.00 87 1015.0
20260510022104 11 48 16.1 41.8 0.00 0.00 0.00 87 1014.8
20260510021103 11 30 16.1 46.7 0.00 0.00 0.00 88 1015.1
20260510020604 11 36 14.5 40.2 0.00 0.00 0.00 88 1015.0
20260510020104 11 43 14.5 41.8 0.00 0.00 0.00 88 1015.3
20260510015604 11 48 16.1 46.7 0.00 0.00 0.00 88 1015.0
20260510015104 11 36 16.1 41.8 0.00 0.00 0.00 87 1015.0
20260510014604 11 20 14.5 49.9 0.00 0.00 0.00 87 1015.1
20260510014104 11 48 19.3 59.5 0.00 0.00 0.00 87 1015.2
20260510013604 11 50 19.3 45.1 0.00 0.00 0.00 87 1015.3
20260510013103 11 56 17.7 51.5 0.00 0.00 0.00 87 1015.3
20260510012604 11 48 17.7 85.3 0.00 0.00 0.00 87 1015.3
20260510012104 11 53 17.7 51.5 0.00 0.00 0.00 87 1015.4
20260510011104 11 45 16.1 48.3 0.00 0.00 0.00 86 1015.5
20260510010104 11 50 19.3 57.9 0.00 0.00 0.00 85 1015.7
20260510005604 11 49 16.1 51.5 0.00 0.00 0.00 85 1015.6
20260510004103 11 50 16.1 41.8 0.00 0.00 0.00 86 1015.5
20260510003604 11 57 12.9 48.3 0.00 0.00 0.00 86 1015.3
20260510003103 11 59 11.3 48.3 0.00 0.00 0.00 86 1015.5
20260510002604 11 34 16.1 48.3 0.00 0.00 0.00 86 1015.4
20260510002103 11 46 19.3 46.7 0.00 0.00 0.00 86 1015.6
20260510001603 11 43 16.1 35.4 0.00 0.00 0.00 86 1015.6
20260510001104 11 48 11.3 33.8 0.00 0.00 0.00 86 1015.6
20260510000604 11 46 11.3 56.3 0.00 0.00 0.00 85 1015.6
20260510000104 11 54 14.5 37.0 0.00 0.00 0.00 85 1015.6
20260509235104 11 63 14.5 45.1 0.00 0.00 0.00 85 1015.7
20260509234104 11 41 17.7 35.4 0.00 0.00 0.00 85 1015.5
20260509233604 11 46 14.5 41.8 0.00 0.00 0.00 84 1015.7
20260509233104 11 54 19.3 56.3 0.00 0.00 0.00 84 1015.6
20260509232604 11 42 17.7 62.8 0.00 0.00 0.00 84 1015.7
20260509232104 11 54 14.5 40.2 0.00 0.00 0.00 84 1016.0
20260509231604 11 43 12.9 37.0 0.00 0.00 0.00 83 1016.0
20260509231105 11 36 19.3 41.8 0.00 0.00 0.00 83 1015.9
20260509230604 11 54 16.1 40.2 0.00 0.00 0.00 83 1016.0
20260509230103 11 51 19.3 40.2 0.00 0.00 0.00 83 1016.1
20260509225603 11 58 14.5 46.7 0.00 0.00 0.00 83 1016.0
20260509225104 11 60 12.9 37.0 0.00 0.00 0.00 83 1016.1
20260509224604 11 48 12.9 24.1 0.00 0.00 0.00 83 1016.0
20260509224104 11 61 12.9 35.4 0.00 0.00 0.00 83 1015.9
20260509223604 11 52 14.5 41.8 0.00 0.00 0.00 84 1016.0
20260509223104 11 34 16.1 46.7 0.00 0.00 0.00 84 1015.9
20260509222611 11 51 14.5 51.5 0.00 0.00 0.00 84 1015.9
20260509222104 11 45 16.1 48.3 0.00 0.00 0.00 84 1015.9
20260509221604 11 57 14.5 51.5 0.00 0.00 0.00 84 1015.9
20260509221103 11 39 16.1 49.9 0.00 0.00 0.00 84 1016.0
20260509220603 11 50 14.5 37.0 0.00 0.00 0.00 84 1016.0
20260509215604 12 60 11.3 37.0 0.00 0.00 0.00 83 1016.1
20260509214604 12 37 14.5 40.2 0.00 0.00 0.00 82 1016.1
20260509214104 12 52 14.5 29.0 0.00 0.00 0.00 82 1016.0
20260509213604 12 48 11.3 35.4 0.00 0.00 0.00 82 1016.0
20260509213104 12 54 16.1 37.0 0.00 0.00 0.00 81 1016.0
20260509212604 12 40 11.3 33.8 0.00 0.00 0.00 81 1015.8
20260509211604 12 39 11.3 37.0 0.00 0.00 0.00 79 1015.9
20260509211104 12 50 14.5 35.4 0.00 0.00 0.00 79 1016.0
20260509210604 12 58 12.9 45.1 0.00 0.00 0.00 78 1015.8
20260509205604 12 43 12.9 33.8 0.00 0.00 0.00 75 1015.8
20260509205104 12 69 14.5 40.2 0.00 0.00 0.00 74 1015.9
20260509204604 12 46 14.5 37.0 0.00 0.00 0.00 73 1015.9
20260509204104 12 48 17.7 40.2 0.00 0.00 0.00 71 1016.0
20260509203604 12 56 8.0 25.7 0.00 0.00 0.00 69 1015.7
20260509203104 12 44 11.3 35.4 0.00 0.00 0.00 67 1015.9
20260509202103 12 65 11.3 24.1 0.00 0.00 0.00 64 1015.9
20260509201604 12 66 11.3 29.0 0.00 0.00 0.00 62 1015.6
20260509201104 12 63 9.7 32.2 0.00 0.00 0.00 61 1015.7
20260509200604 13 58 11.3 22.5 0.00 0.00 0.00 60 1015.6
20260509200104 13 56 11.3 22.5 0.00 0.00 0.00 60 1015.5
20260509195603 13 62 9.7 25.7 0.00 0.00 0.00 59 1015.4
20260509195104 13 59 9.7 32.2 0.00 0.00 0.00 59 1015.5
20260509194604 13 68 11.3 41.8 0.00 0.00 0.00 59 1015.4
20260509194103 13 60 12.9 32.2 0.00 0.00 0.00 58 1015.2
20260509193604 13 82 8.0 20.9 0.00 0.00 0.00 58 1015.3
20260509193104 13 66 8.0 29.0 0.00 0.00 0.00 57 1015.4
20260509192604 13 59 11.3 24.1 0.00 0.00 0.00 57 1015.3
20260509192103 14 69 8.0 35.4 0.00 0.00 0.00 56 1015.3
20260509191604 14 52 14.5 38.6 0.00 0.00 0.00 56 1015.1
20260509191103 14 53 14.5 27.4 0.00 0.00 0.00 56 1015.2
20260509190603 14 46 11.3 35.4 0.00 0.00 0.00 56 1015.3
20260509185604 15 65 11.3 37.0 0.00 0.00 0.00 56 1015.2
20260509184604 15 58 11.3 35.4 0.00 0.00 0.00 56 1015.2
20260509184103 15 63 11.3 32.2 0.00 0.00 0.00 56 1015.0
20260509182603 15 60 9.7 35.4 0.00 0.00 0.00 54 1015.3
20260509182104 15 56 14.5 35.4 0.00 0.00 0.00 54 1015.1
20260509181604 15 38 14.5 37.0 0.00 0.00 0.00 53 1015.1
20260509181104 15 71 19.3 41.8 0.00 0.00 0.00 53 1015.1
20260509180604 15 50 16.1 61.2 0.00 0.00 0.00 52 1015.1
20260509180104 15 44 16.1 48.3 0.00 0.00 0.00 50 1015.2
20260509175603 16 47 20.9 57.9 0.00 0.00 0.00 49 1015.4
20260509175103 16 37 19.3 46.7 0.00 0.00 0.00 49 1015.1
20260509174603 16 45 12.9 57.9 0.00 0.00 0.00 48 1014.8
20260509173604 16 36 20.9 57.9 0.00 0.00 0.00 46 1015.0
20260509173103 16 49 14.5 45.1 0.00 0.00 0.00 47 1014.9
20260509172604 16 25 19.3 48.3 0.00 0.00 0.00 47 1014.8
20260509172103 16 51 22.5 59.5 0.00 0.00 0.00 49 1014.8
20260509171604 16 45 20.9 59.5 0.00 0.00 0.00 48 1014.8
20260509171103 16 39 16.1 53.1 0.00 0.00 0.00 49 1015.0
20260509170603 16 32 16.1 56.3 0.00 0.00 0.00 50 1014.9
20260509170106 17 33 20.9 74.0 0.00 0.00 0.00 50 1015.0
20260509165606 17 46 14.5 40.2 0.00 0.00 0.00 50 1015.0
20260509165105 17 43 14.5 45.1 0.00 0.00 0.00 49 1015.0
20260509164106 17 53 22.5 56.3 0.00 0.00 0.00 51 1015.1
20260509163606 17 48 20.9 53.1 0.00 0.00 0.00 52 1015.2
20260509163106 17 46 16.1 49.9 0.00 0.00 0.00 52 1015.1
20260509162606 17 48 16.1 49.9 0.00 0.00 0.00 51 1015.0
20260509162106 17 44 19.3 61.2 0.00 0.00 0.00 52 1014.9
20260509161606 17 48 19.3 53.1 0.00 0.00 0.00 51 1015.1
20260509161105 17 39 22.5 61.2 0.00 0.00 0.00 51 1015.0
20260509160606 17 36 20.9 46.7 0.00 0.00 0.00 51 1015.0
20260509160106 17 37 16.1 40.2 0.00 0.00 0.00 50 1015.1
20260509155605 17 55 16.1 56.3 0.00 0.00 0.00 50 1015.1
20260509155105 18 25 16.1 46.7 0.00 0.00 0.00 50 1015.2
20260509154105 18 35 17.7 40.2 0.00 0.00 0.00 50 1015.4
20260509153606 18 35 11.3 53.1 0.00 0.00 0.00 51 1015.4
20260509153106 18 21 19.3 53.1 0.00 0.00 0.00 50 1015.5
20260509152605 18 35 17.7 56.3 0.00 0.00 0.00 51 1015.6
20260509152106 18 55 14.5 51.5 0.00 0.00 0.00 50 1015.4
20260509151605 17 41 20.9 69.2 0.00 0.00 0.00 48 1015.5
20260509151106 18 49 19.3 45.1 0.00 0.00 0.00 47 1015.6
20260509150606 18 30 16.1 51.5 0.00 0.00 0.00 47 1015.5
20260509150105 18 28 12.9 53.1 0.00 0.00 0.00 48 1015.6
20260509145605 18 42 20.9 49.9 0.00 0.00 0.00 46 1015.4
20260509144605 18 42 16.1 45.1 0.00 0.00 0.00 47 1015.5
20260509144106 18 18 24.1 56.3 0.00 0.00 0.00 45 1015.4
20260509143605 18 26 16.1 38.6 0.00 0.00 0.00 47 1015.5
20260509143105 18 42 16.1 46.7 0.00 0.00 0.00 47 1015.6
20260509142606 18 65 16.1 40.2 0.00 0.00 0.00 48 1015.3
20260509142106 18 56 14.5 56.3 0.00 0.00 0.00 48 1015.5
20260509141606 18 41 16.1 48.3 0.00 0.00 0.00 48 1015.3
20260509141106 18 49 16.1 49.9 0.00 0.00 0.00 47 1015.3
20260509140605 18 39 22.5 46.7 0.00 0.00 0.00 47 1015.5
20260509140105 18 53 16.1 38.6 0.00 0.00 0.00 46 1015.5
20260509134106 18 30 16.1 59.5 0.00 0.00 0.00 48 1015.5
20260509133105 18 63 11.3 40.2 0.00 0.00 0.00 48 1015.5
20260509132606 18 72 19.3 46.7 0.00 0.00 0.00 48 1015.3
20260509132106 18 69 19.3 49.9 0.00 0.00 0.00 49 1015.6
20260509131105 18 53 17.7 45.1 0.00 0.00 0.00 47 1015.6
20260509130606 19 69 12.9 35.4 0.00 0.00 0.00 47 1015.6
20260509130106 18 55 12.9 57.9 0.00 0.00 0.00 47 1015.7
20260509125605 18 47 19.3 48.3 0.00 0.00 0.00 47 1015.8
20260509125105 19 51 16.1 48.3 0.00 0.00 0.00 47 1015.8
20260509124605 19 25 16.1 46.7 0.00 0.00 0.00 47 1015.8
20260509124106 18 28 17.7 48.3 0.00 0.00 0.00 48 1016.0
20260509123606 19 61 12.9 46.7 0.00 0.00 0.00 47 1015.9
20260509123105 19 42 14.5 40.2 0.00 0.00 0.00 47 1016.1
20260509122605 18 68 19.3 41.8 0.00 0.00 0.00 48 1016.1
20260509122106 18 56 16.1 37.0 0.00 0.00 0.00 50 1015.9
20260509121106 18 81 11.3 37.0 0.00 0.00 0.00 49 1016.0
20260509120605 18 62 17.7 51.5 0.00 0.00 0.00 49 1015.9
20260509120105 18 62 14.5 40.2 0.00 0.00 0.00 49 1015.9
20260509115606 18 43 9.7 48.3 0.00 0.00 0.00 48 1016.0
20260509115106 18 47 16.1 46.7 0.00 0.00 0.00 48 1016.1
20260509114606 19 42 12.9 40.2 0.00 0.00 0.00 48 1016.0
20260509114105 19 40 19.3 40.2 0.00 0.00 0.00 48 1016.2
20260509113605 18 47 16.1 45.1 0.00 0.00 0.00 48 1016.2
20260509113105 19 51 17.7 35.4 0.00 0.00 0.00 47 1016.3
20260509112606 19 37 20.9 41.8 0.00 0.00 0.00 48 1016.4
20260509112106 19 42 19.3 40.2 0.00 0.00 0.00 47 1016.4
20260509111606 18 40 12.9 40.2 0.00 0.00 0.00 48 1016.2
20260509111106 19 61 9.7 37.0 0.00 0.00 0.00 47 1016.2
20260509110605 19 31 14.5 37.0 0.00 0.00 0.00 48 1016.4
20260509110116 18 50 8.0 33.8 0.00 0.00 0.00 50 1016.3
20260509105606 19 55 12.9 40.2 0.00 0.00 0.00 48 1016.4
20260509104606 18 66 9.7 40.2 0.00 0.00 0.00 50 1016.7
20260509104108 18 59 22.5 57.9 0.00 0.00 0.00 50 1016.8
20260509103606 18 52 16.1 41.8 0.00 0.00 0.00 51 1016.6
20260509103106 18 50 16.1 38.6 0.00 0.00 0.00 51 1016.8
20260509102606 18 55 12.9 38.6 0.00 0.00 0.00 52 1016.7
20260509102106 18 44 19.3 40.2 0.00 0.00 0.00 53 1016.7
20260509101106 18 68 12.9 51.5 0.00 0.00 0.00 53 1016.6
20260509100605 18 77 16.1 38.6 0.00 0.00 0.00 55 1016.7
20260509100105 18 56 11.3 38.6 0.00 0.00 0.00 56 1016.8
20260509095606 18 65 14.5 37.0 0.00 0.00 0.00 56 1016.6
20260509094605 17 42 9.7 29.0 0.00 0.00 0.00 65 1016.8
20260509094106 17 95 9.7 27.4 0.00 0.00 0.00 62 1016.8
20260509093605 17 86 11.3 32.2 0.00 0.00 0.00 68 1016.7
20260509093105 17 73 9.7 25.7 0.00 0.00 0.00 66 1017.0
20260509092106 17 76 11.3 35.4 0.00 0.00 0.00 59 1016.8